Hartford, CT

2:09 AM EST on December 12, 2017 (GMT -0500)
Hartford-brainard

Weather History for KHFD - March, 2014

Change the Weather History Date:

Saturday, March 29, 2014

  Actual Average Record
Temperature  
Mean Temperature 44 °F -  
Max Temperature 52 °F 55 °F 86 °F (1945)
Min Temperature 37 °F 32 °F 4 °F (1923)
Degree Days  
Heating Degree Days 20    
Moisture  
Dew Point 42 °F    
Average Humidity 93    
Maximum Humidity 100    
Minimum Humidity 68    
Precipitation  
Precipitation 1.23 in - - ()
Sea Level Pressure  
Sea Level Pressure 30.07 in    
Wind  
Wind Speed 5 mph (NNE)    
Max Wind Speed 14 mph    
Max Gust Speed -    
Visibility 4 miles    
Events Fog , Rain    
Averages and records for this station are not official NWS values.
T = Trace of Precipitation, MM = Missing Value Source: NWS Daily Summary

Daily Weather History Graph

Daily Weather History Graph

Search for Another Location

Airport or City:

Trip Planner

Search our weather history database for the weather conditions in past years. The results will help you decide how hot, cold, wet, or windy it might be!

Date:

Astronomy

Mar. 29, 2014 Rise Set
Actual Time 6:38 AM EDT 7:12 PM EDT
Civil Twilight 6:10 AM EDT 7:40 PM EDT
Nautical Twilight 5:37 AM EDT 8:13 PM EDT
Astronomical Twilight 5:03 AM EDT 8:47 PM EDT
Moon 5:46 AM EDT (3/29) 6:14 PM EDT (3/29)
Length of Visible Light 13h 30m
Length of Day
12h 34m
Waning Crescent, 2% of the Moon is Illuminated
Mar 29
Waning Crescent
Mar 30
New
Apr 7
First Quarter
Apr 15
Full
Apr 22
Last Quarter

Hourly Weather History & Observations

Time (EDT) Temp. Windchill Dew Point Humidity Pressure Visibility Wind Dir Wind Speed Gust Speed Precip Events Conditions
12:36 AM 44.1 °F - 43.0 °F 96% 30.07 in 2.5 mi Calm Calm - N/A   Overcast
12:51 AM 42.8 °F 40.1 °F 42.8 °F 100% 30.08 in 0.8 mi South 4.6 mph - N/A   Mostly Cloudy
12:53 AM 44.1 °F 40.8 °F 43.0 °F 96% 30.08 in 0.8 mi South 5.8 mph - N/A   Mostly Cloudy
1:02 AM 44.1 °F 40.8 °F 43.0 °F 96% 30.08 in 2.5 mi South 5.8 mph - N/A   Mostly Cloudy
1:09 AM 44.1 °F 42.5 °F 43.0 °F 96% 30.09 in 4.0 mi SW 3.5 mph - N/A   Mostly Cloudy
1:29 AM 44.1 °F 42.5 °F 43.0 °F 96% 30.09 in 2.5 mi West 3.5 mph - N/A   Partly Cloudy
1:46 AM 41.0 °F 36.4 °F 41.0 °F 100% 30.11 in 0.8 mi North 6.9 mph - N/A   Mist
1:53 AM 46.9 °F - 45.0 °F 93% 30.11 in 1.0 mi WNW 5.8 mph - N/A   Scattered Clouds
1:57 AM 46.9 °F - 46.0 °F 97% 30.11 in 3.0 mi West 4.6 mph - N/A   Scattered Clouds
2:07 AM 46.9 °F - 46.0 °F 97% 30.11 in 4.0 mi Variable 3.5 mph - N/A   Mostly Cloudy
2:11 AM 43.0 °F 39.5 °F 43.0 °F 100% 30.11 in 2.5 mi East 5.8 mph - N/A   Mostly Cloudy
2:30 AM 43.0 °F - 43.0 °F 100% 30.12 in 1.5 mi Calm Calm - N/A   Mostly Cloudy
2:41 AM 45.0 °F - 44.1 °F 97% 30.12 in 2.5 mi Calm Calm - N/A   Mostly Cloudy
2:46 AM 45.0 °F 43.5 °F 44.1 °F 97% 30.12 in 3.0 mi North 3.5 mph - N/A   Overcast
2:53 AM 46.9 °F - 45.0 °F 93% 30.12 in 5.0 mi North 4.6 mph - N/A   Overcast
3:12 AM 46.9 °F - 45.0 °F 93% 30.13 in 5.0 mi North 5.8 mph - N/A   Scattered Clouds
3:53 AM 46.0 °F 42.5 °F 41.0 °F 83% 30.12 in 10.0 mi North 6.9 mph - N/A   Clear
4:53 AM 41.0 °F - 39.9 °F 96% 30.13 in 8.0 mi Calm Calm - N/A   Clear
5:24 AM 39.9 °F - 39.0 °F 97% 30.14 in 1.5 mi Calm Calm - N/A   Clear
5:31 AM 39.9 °F - 39.0 °F 97% 30.15 in 1.2 mi Calm Calm - N/A   Partly Cloudy
5:39 AM 39.0 °F 36.8 °F 37.9 °F 96% 30.14 in 0.8 mi South 3.5 mph - N/A   Mist
5:53 AM 39.0 °F - 37.9 °F 96% 30.15 in 0.2 mi Calm Calm - N/A Fog Fog
6:53 AM 37.0 °F 31.0 °F 37.0 °F 100% 30.17 in 0.5 mi NNE 8.1 mph - N/A Fog Fog
7:00 AM 39.0 °F 34.8 °F 39.0 °F 100% 30.17 in 2.0 mi North 5.8 mph - N/A   Partly Cloudy
7:09 AM 37.0 °F 32.4 °F 37.0 °F 100% 30.17 in 4.0 mi North 5.8 mph - N/A   Clear
7:53 AM 39.9 °F 36.7 °F 39.0 °F 97% 30.21 in 8.0 mi NNE 4.6 mph - N/A   Clear
8:53 AM 45.0 °F 41.8 °F 39.9 °F 82% 30.24 in 10.0 mi NNW 5.8 mph - N/A   Clear
9:53 AM 46.9 °F - 39.9 °F 77% 30.23 in 10.0 mi NNE 8.1 mph - N/A   Scattered Clouds
10:53 AM 48.9 °F - 41.0 °F 74% 30.22 in 10.0 mi North 4.6 mph - N/A   Scattered Clouds
11:53 AM 50.0 °F - 41.0 °F 71% 30.20 in 10.0 mi North 6.9 mph - N/A   Mostly Cloudy
12:53 PM 51.1 °F - 41.0 °F 68% 30.18 in 10.0 mi North 3.5 mph - N/A   Overcast
1:53 PM 52.0 °F - 43.0 °F 71% 30.16 in 6.0 mi ENE 4.6 mph - 0.00 in Rain Light Rain
2:53 PM 50.0 °F - 46.0 °F 86% 30.14 in 3.0 mi East 3.5 mph - 0.05 in Rain Light Rain
3:53 PM 50.0 °F - 46.0 °F 86% 30.11 in 6.0 mi ENE 4.6 mph - 0.05 in Rain Light Rain
4:18 PM 48.9 °F - 46.0 °F 90% 30.08 in 3.0 mi NE 6.9 mph - 0.02 in Rain Light Rain
4:53 PM 48.9 °F - 46.0 °F 90% 30.06 in 5.0 mi NE 9.2 mph - 0.03 in Rain Light Rain
5:29 PM 48.0 °F - 45.0 °F 89% 30.05 in 2.5 mi Variable 6.9 mph - 0.04 in Rain Light Rain
5:39 PM 48.0 °F - 45.0 °F 89% 30.06 in 3.0 mi NE 8.1 mph - 0.05 in Rain Light Rain
5:53 PM 46.9 °F - 44.1 °F 90% 30.05 in 3.0 mi NE 8.1 mph - 0.06 in Rain Light Rain
6:01 PM 46.9 °F - 44.1 °F 90% 30.06 in 2.5 mi NNE 13.8 mph - 0.01 in Rain Light Rain
6:46 PM 45.0 °F 41.2 °F 43.0 °F 93% 30.05 in 2.5 mi NNE 6.9 mph - 0.08 in Rain Rain
6:53 PM 45.0 °F 39.7 °F 43.0 °F 93% 30.04 in 2.5 mi North 10.4 mph - 0.10 in Rain Rain
7:28 PM 44.1 °F 38.6 °F 42.1 °F 93% 30.02 in 3.0 mi NE 10.4 mph - 0.08 in Rain Rain
7:32 PM 44.1 °F 39.5 °F 42.1 °F 93% 30.02 in 3.0 mi NE 8.1 mph - 0.09 in Rain Light Rain
7:41 PM 44.1 °F 39.0 °F 42.1 °F 93% 30.02 in 3.0 mi NNE 9.2 mph - 0.11 in Rain Rain
7:53 PM 43.0 °F 37.7 °F 42.1 °F 97% 30.01 in 3.0 mi NNE 9.2 mph - 0.13 in Rain Rain
8:15 PM 43.0 °F 38.2 °F 42.1 °F 97% 30.02 in 2.5 mi North 8.1 mph - 0.05 in Rain Rain
8:51 PM 42.8 °F 38.0 °F 42.8 °F 100% 30.01 in 3.0 mi NNE 8.1 mph - 0.13 in Rain Light Rain
8:52 PM 43.0 °F 38.2 °F 42.1 °F 97% 30.01 in 3.0 mi NNE 8.1 mph - 0.14 in Rain Light Rain
9:00 PM 43.0 °F 38.8 °F 42.1 °F 97% 30.01 in 3.0 mi North 6.9 mph - 0.00 in Rain Light Rain
9:07 PM 42.1 °F 36.6 °F 41.0 °F 96% 30.00 in 3.0 mi NNE 9.2 mph - 0.02 in Rain Rain
9:15 PM 42.1 °F 37.1 °F 41.0 °F 96% 30.00 in 3.0 mi North 8.1 mph - 0.04 in Rain Rain
9:53 PM 42.1 °F 35.7 °F 41.0 °F 96% 29.97 in 2.5 mi NNE 11.5 mph - 0.11 in Rain Rain
10:08 PM 42.1 °F 35.7 °F 39.9 °F 92% 29.96 in 3.0 mi North 11.5 mph - 0.04 in Rain Rain
10:18 PM 42.1 °F 35.2 °F 39.9 °F 92% 29.95 in 3.0 mi NNE 12.7 mph - 0.07 in Rain Rain
10:40 PM 41.0 °F 34.3 °F 39.9 °F 96% 29.93 in 2.5 mi North 11.5 mph - 0.13 in Rain Heavy Rain
10:53 PM 41.0 °F 34.3 °F 39.9 °F 96% 29.93 in 2.5 mi NNE 11.5 mph - 0.17 in Rain Rain
11:11 PM 41.0 °F 33.5 °F 39.9 °F 96% 29.90 in 1.8 mi North 13.8 mph - 0.10 in Rain Heavy Rain
11:40 PM 41.0 °F 34.3 °F 39.9 °F 96% 29.88 in 1.5 mi North 11.5 mph - 0.32 in Rain Heavy Rain
11:48 PM 41.0 °F 34.7 °F 39.2 °F 93% 29.88 in 2.0 mi North 10.4 mph - 0.37 in Rain Heavy Rain
11:53 PM 41.0 °F 34.3 °F 39.9 °F 96% 29.87 in 2.0 mi North 11.5 mph - 0.39 in Rain Rain